Year,Month,Day,Hour,Minute,Value (Times are PST for temperature in C)
2015,07,03,00,00,19.80
2015,07,03,00,01,19.70
2015,07,03,00,02,19.70
2015,07,03,00,03,19.70
2015,07,03,00,04,19.70
2015,07,03,00,05,19.60
2015,07,03,00,06,19.60
2015,07,03,00,07,19.60
2015,07,03,00,08,19.60
2015,07,03,00,09,19.60
2015,07,03,00,10,19.60
2015,07,03,00,11,19.60
2015,07,03,00,12,19.60
2015,07,03,00,13,19.50
2015,07,03,00,14,19.50
2015,07,03,00,15,19.50
2015,07,03,00,16,19.50
2015,07,03,00,17,19.40
2015,07,03,00,18,19.40
2015,07,03,00,19,19.40
2015,07,03,00,20,19.40
2015,07,03,00,21,19.40
2015,07,03,00,22,19.40
2015,07,03,00,23,19.40
2015,07,03,00,24,19.40
2015,07,03,00,25,19.40
2015,07,03,00,26,19.40
2015,07,03,00,27,19.50
2015,07,03,00,28,19.50
2015,07,03,00,29,19.50
2015,07,03,00,30,19.60
2015,07,03,00,31,19.60
2015,07,03,00,32,19.60
2015,07,03,00,33,19.60
2015,07,03,00,34,19.60
2015,07,03,00,35,19.60
2015,07,03,00,36,19.60
2015,07,03,00,37,19.60
2015,07,03,00,38,19.60
2015,07,03,00,39,19.60
2015,07,03,00,40,19.70
2015,07,03,00,41,19.70
2015,07,03,00,42,19.70
2015,07,03,00,43,19.70
2015,07,03,00,44,19.70
2015,07,03,00,45,19.70
2015,07,03,00,46,19.80
2015,07,03,00,47,19.80
2015,07,03,00,48,19.80
2015,07,03,00,49,19.80
2015,07,03,00,50,19.80
2015,07,03,00,51,19.80
2015,07,03,00,52,19.80
2015,07,03,00,53,19.80
2015,07,03,00,54,19.80
2015,07,03,00,55,19.90
2015,07,03,00,56,19.90
2015,07,03,00,57,19.90
2015,07,03,00,58,19.90
2015,07,03,00,59,19.90
2015,07,03,01,00,19.90
2015,07,03,01,01,19.90
2015,07,03,01,02,19.80
2015,07,03,01,03,19.80
2015,07,03,01,04,19.80
2015,07,03,01,05,19.80
2015,07,03,01,06,19.80
2015,07,03,01,07,19.80
2015,07,03,01,08,19.70
2015,07,03,01,09,19.70
2015,07,03,01,10,19.60
2015,07,03,01,11,19.60
2015,07,03,01,12,19.50
2015,07,03,01,13,19.40
2015,07,03,01,14,19.30
2015,07,03,01,15,19.20
2015,07,03,01,16,19.10
2015,07,03,01,17,19.00
2015,07,03,01,18,18.80
2015,07,03,01,19,18.60
2015,07,03,01,20,18.50
2015,07,03,01,21,18.30
2015,07,03,01,22,18.10
2015,07,03,01,23,18.00
2015,07,03,01,24,17.90
2015,07,03,01,25,17.70
2015,07,03,01,26,17.60
2015,07,03,01,27,17.50
2015,07,03,01,28,17.30
2015,07,03,01,29,17.20
2015,07,03,01,30,17.10
2015,07,03,01,31,16.90
2015,07,03,01,32,16.80
2015,07,03,01,33,16.70
2015,07,03,01,34,16.70
2015,07,03,01,35,16.50
2015,07,03,01,36,16.40
2015,07,03,01,37,16.30
2015,07,03,01,38,16.30
2015,07,03,01,39,16.20
2015,07,03,01,40,16.10
2015,07,03,01,41,15.90
2015,07,03,01,42,15.80
2015,07,03,01,43,15.70
2015,07,03,01,44,15.70
2015,07,03,01,45,15.60
2015,07,03,01,46,15.50
2015,07,03,01,47,15.40
2015,07,03,01,48,15.40
2015,07,03,01,49,15.30
2015,07,03,01,50,15.20
2015,07,03,01,51,15.20
2015,07,03,01,52,15.10
2015,07,03,01,53,15.10
2015,07,03,01,54,15.00
2015,07,03,01,55,14.90
2015,07,03,01,56,14.90
2015,07,03,01,57,14.90
2015,07,03,01,58,14.80
2015,07,03,01,59,14.80
2015,07,03,02,00,14.80
2015,07,03,02,01,14.70
2015,07,03,02,02,14.70
2015,07,03,02,03,14.70
2015,07,03,02,04,14.70
2015,07,03,02,05,14.70
2015,07,03,02,06,14.70
2015,07,03,02,07,14.70
2015,07,03,02,08,14.70
2015,07,03,02,09,14.70
2015,07,03,02,10,14.70
2015,07,03,02,11,14.70
2015,07,03,02,12,14.70
2015,07,03,02,13,14.80
2015,07,03,02,14,14.80
2015,07,03,02,15,14.80
2015,07,03,02,16,14.80
2015,07,03,02,17,14.90
2015,07,03,02,18,14.90
2015,07,03,02,19,15.00
2015,07,03,02,20,15.00
2015,07,03,02,21,15.10
2015,07,03,02,22,15.10
2015,07,03,02,23,15.20
2015,07,03,02,24,15.30
2015,07,03,02,25,15.30
2015,07,03,02,26,15.40
2015,07,03,02,27,15.40
2015,07,03,02,28,15.50
2015,07,03,02,29,15.50
2015,07,03,02,30,15.60
2015,07,03,02,31,15.60
2015,07,03,02,32,15.70
2015,07,03,02,33,15.70
2015,07,03,02,34,15.80
2015,07,03,02,35,15.80
2015,07,03,02,36,15.80
2015,07,03,02,37,15.90
2015,07,03,02,38,15.90
2015,07,03,02,39,15.90
2015,07,03,02,40,16.00
2015,07,03,02,41,16.00
2015,07,03,02,42,16.10
2015,07,03,02,43,16.10
2015,07,03,02,44,16.10
2015,07,03,02,45,16.10
2015,07,03,02,46,16.10
2015,07,03,02,47,16.10
2015,07,03,02,48,16.10
2015,07,03,02,49,16.10
2015,07,03,02,50,16.10
2015,07,03,02,51,16.00
2015,07,03,02,52,16.00
2015,07,03,02,53,15.90
2015,07,03,02,54,15.90
2015,07,03,02,55,15.80
2015,07,03,02,56,15.80
2015,07,03,02,57,15.70
2015,07,03,02,58,15.60
2015,07,03,02,59,15.50
2015,07,03,03,00,15.50
2015,07,03,03,01,15.40
2015,07,03,03,02,15.30
2015,07,03,03,03,15.20
2015,07,03,03,04,15.20
2015,07,03,03,05,15.10
2015,07,03,03,06,15.10
2015,07,03,03,07,15.10
2015,07,03,03,08,15.00
2015,07,03,03,09,15.00
2015,07,03,03,10,14.90
2015,07,03,03,11,14.90
2015,07,03,03,12,14.90
2015,07,03,03,13,14.90
2015,07,03,03,14,14.90
2015,07,03,03,15,14.80
2015,07,03,03,16,14.80
2015,07,03,03,17,14.80
2015,07,03,03,18,14.80
2015,07,03,03,19,14.80
2015,07,03,03,20,14.80
2015,07,03,03,21,14.80
2015,07,03,03,22,14.80
2015,07,03,03,23,14.80
2015,07,03,03,24,14.80
2015,07,03,03,25,14.70
2015,07,03,03,26,14.70
2015,07,03,03,27,14.70
2015,07,03,03,28,14.70
2015,07,03,03,29,14.60
2015,07,03,03,30,14.60
2015,07,03,03,31,14.60
2015,07,03,03,32,14.60
2015,07,03,03,33,14.50
2015,07,03,03,34,14.50
2015,07,03,03,35,14.50
2015,07,03,03,36,14.40
2015,07,03,03,37,14.40
2015,07,03,03,38,14.40
2015,07,03,03,39,14.40
2015,07,03,03,40,14.40
2015,07,03,03,41,14.40
2015,07,03,03,42,14.40
2015,07,03,03,43,14.40
2015,07,03,03,44,14.30
2015,07,03,03,45,14.30
2015,07,03,03,46,14.30
2015,07,03,03,47,14.30
2015,07,03,03,48,14.30
2015,07,03,03,49,14.30
2015,07,03,03,50,14.20
2015,07,03,03,51,14.20
2015,07,03,03,52,14.20
2015,07,03,03,53,14.20
2015,07,03,03,54,14.20
2015,07,03,03,55,14.20
2015,07,03,03,56,14.10
2015,07,03,03,57,14.10
2015,07,03,03,58,14.10
2015,07,03,03,59,14.10
2015,07,03,04,00,14.10
2015,07,03,04,01,14.00
2015,07,03,04,02,14.00
2015,07,03,04,03,14.00
2015,07,03,04,04,14.00
2015,07,03,04,05,13.90
2015,07,03,04,06,13.90
2015,07,03,04,07,13.90
2015,07,03,04,08,13.90
2015,07,03,04,09,13.90
2015,07,03,04,10,13.80
2015,07,03,04,11,13.80
2015,07,03,04,12,13.80
2015,07,03,04,13,13.80
2015,07,03,04,14,13.80
2015,07,03,04,15,13.80
2015,07,03,04,16,13.80
2015,07,03,04,17,13.70
2015,07,03,04,18,13.70
2015,07,03,04,19,13.70
2015,07,03,04,20,13.70
2015,07,03,04,21,13.70
2015,07,03,04,22,13.70
2015,07,03,04,23,13.70
2015,07,03,04,24,13.70
2015,07,03,04,25,13.70
2015,07,03,04,26,13.70
2015,07,03,04,27,13.70
2015,07,03,04,28,13.70
2015,07,03,04,29,13.70
2015,07,03,04,30,13.70
2015,07,03,04,31,13.60
2015,07,03,04,32,13.60
2015,07,03,04,33,13.60
2015,07,03,04,34,13.60
2015,07,03,04,35,13.60
2015,07,03,04,36,13.60
2015,07,03,04,37,13.60
2015,07,03,04,38,13.60
2015,07,03,04,39,13.60
2015,07,03,04,40,13.60
2015,07,03,04,41,13.60
2015,07,03,04,42,13.60
2015,07,03,04,43,13.60
2015,07,03,04,44,13.60
2015,07,03,04,45,13.60
2015,07,03,04,46,13.60
2015,07,03,04,47,13.60
2015,07,03,04,48,13.60
2015,07,03,04,49,13.60
2015,07,03,04,50,13.60
2015,07,03,04,51,13.60
2015,07,03,04,52,13.60
2015,07,03,04,53,13.60
2015,07,03,04,54,13.60
2015,07,03,04,55,13.60
2015,07,03,04,56,13.70
2015,07,03,04,57,13.70
2015,07,03,04,58,13.70
2015,07,03,04,59,13.70
2015,07,03,05,00,13.70
2015,07,03,05,01,13.70
2015,07,03,05,02,13.70
2015,07,03,05,03,13.70
2015,07,03,05,04,13.70
2015,07,03,05,05,13.70
2015,07,03,05,06,13.80
2015,07,03,05,07,13.80
2015,07,03,05,08,13.80
2015,07,03,05,09,13.80
2015,07,03,05,10,13.80
2015,07,03,05,11,13.80
2015,07,03,05,12,13.80
2015,07,03,05,13,13.80
2015,07,03,05,14,13.80
2015,07,03,05,15,13.90
2015,07,03,05,16,13.90
2015,07,03,05,17,13.90
2015,07,03,05,18,13.90
2015,07,03,05,19,13.90
2015,07,03,05,20,13.90
2015,07,03,05,21,14.00
2015,07,03,05,22,14.00
2015,07,03,05,23,14.00
2015,07,03,05,24,14.10
2015,07,03,05,25,14.10
2015,07,03,05,26,14.10
2015,07,03,05,27,14.10
2015,07,03,05,28,14.10
2015,07,03,05,29,14.20
2015,07,03,05,30,14.20
2015,07,03,05,31,14.20
2015,07,03,05,32,14.20
2015,07,03,05,33,14.20
2015,07,03,05,34,14.20
2015,07,03,05,35,14.20
2015,07,03,05,36,14.20
2015,07,03,05,37,14.30
2015,07,03,05,38,14.30
2015,07,03,05,39,14.30
2015,07,03,05,40,14.30
2015,07,03,05,41,14.30
2015,07,03,05,42,14.40
2015,07,03,05,43,14.40
2015,07,03,05,44,14.40
2015,07,03,05,45,14.50
2015,07,03,05,46,14.50
2015,07,03,05,47,14.50
2015,07,03,05,48,14.60
2015,07,03,05,49,14.60
2015,07,03,05,50,14.70
2015,07,03,05,51,14.70
2015,07,03,05,52,14.70
2015,07,03,05,53,14.70
2015,07,03,05,54,14.80
2015,07,03,05,55,14.80
2015,07,03,05,56,14.80
2015,07,03,05,57,14.90
2015,07,03,05,58,14.90
2015,07,03,05,59,15.00
2015,07,03,06,00,15.00
2015,07,03,06,01,15.10
2015,07,03,06,02,15.10
2015,07,03,06,03,15.20
2015,07,03,06,04,15.20
2015,07,03,06,05,15.30
2015,07,03,06,06,15.30
2015,07,03,06,07,15.30
2015,07,03,06,08,15.40
2015,07,03,06,09,15.40
2015,07,03,06,10,15.40
2015,07,03,06,11,15.50
2015,07,03,06,12,15.50
2015,07,03,06,13,15.60
2015,07,03,06,14,15.60
2015,07,03,06,15,15.70
2015,07,03,06,16,15.70
2015,07,03,06,17,15.80
2015,07,03,06,18,15.80
2015,07,03,06,19,15.80
2015,07,03,06,20,15.90
2015,07,03,06,21,15.90
2015,07,03,06,22,16.00
2015,07,03,06,23,16.00
2015,07,03,06,24,16.10
2015,07,03,06,25,16.10
2015,07,03,06,26,16.20
2015,07,03,06,27,16.20
2015,07,03,06,28,16.30
2015,07,03,06,29,16.30
2015,07,03,06,30,16.40
2015,07,03,06,31,16.40
2015,07,03,06,32,16.50
2015,07,03,06,33,16.50
2015,07,03,06,34,16.60
2015,07,03,06,35,16.70
2015,07,03,06,36,16.70
2015,07,03,06,37,16.80
2015,07,03,06,38,16.80
2015,07,03,06,39,16.90
2015,07,03,06,40,17.00
2015,07,03,06,41,17.10
2015,07,03,06,42,17.10
2015,07,03,06,43,17.20
2015,07,03,06,44,17.30
2015,07,03,06,45,17.30
2015,07,03,06,46,17.40
2015,07,03,06,47,17.40
2015,07,03,06,48,17.50
2015,07,03,06,49,17.50
2015,07,03,06,50,17.60
2015,07,03,06,51,17.60
2015,07,03,06,52,17.60
2015,07,03,06,53,17.60
2015,07,03,06,54,17.70
2015,07,03,06,55,17.70
2015,07,03,06,56,17.70
2015,07,03,06,57,17.80
2015,07,03,06,58,17.80
2015,07,03,06,59,17.90
2015,07,03,07,00,17.90
2015,07,03,07,01,17.90
2015,07,03,07,02,18.00
2015,07,03,07,03,18.10
2015,07,03,07,04,18.20
2015,07,03,07,05,18.20
2015,07,03,07,06,18.30
2015,07,03,07,07,18.40
2015,07,03,07,08,18.50
2015,07,03,07,09,18.50
2015,07,03,07,10,18.60
2015,07,03,07,11,18.60
2015,07,03,07,12,18.70
2015,07,03,07,13,18.70
2015,07,03,07,14,18.80
2015,07,03,07,15,18.80
2015,07,03,07,16,18.90
2015,07,03,07,17,19.00
2015,07,03,07,18,19.00
2015,07,03,07,19,19.10
2015,07,03,07,20,19.10
2015,07,03,07,21,19.20
2015,07,03,07,22,19.20
2015,07,03,07,23,19.30
2015,07,03,07,24,19.40
2015,07,03,07,25,19.50
2015,07,03,07,26,19.60
2015,07,03,07,27,19.60
2015,07,03,07,28,19.70
2015,07,03,07,29,19.80
2015,07,03,07,30,19.90
2015,07,03,07,31,19.90
2015,07,03,07,32,20.00
2015,07,03,07,33,20.10
2015,07,03,07,34,20.10
2015,07,03,07,35,20.20
2015,07,03,07,36,20.20
2015,07,03,07,37,20.30
2015,07,03,07,38,20.30
2015,07,03,07,39,20.30
2015,07,03,07,40,20.30
2015,07,03,07,41,20.30
2015,07,03,07,42,20.30
2015,07,03,07,43,20.20
2015,07,03,07,44,20.20
2015,07,03,07,45,20.10
2015,07,03,07,46,20.10
2015,07,03,07,47,20.00
2015,07,03,07,48,20.00
2015,07,03,07,49,20.00
2015,07,03,07,50,20.00
2015,07,03,07,51,20.00
2015,07,03,07,52,20.00
2015,07,03,07,53,20.00
2015,07,03,07,54,20.10
2015,07,03,07,55,20.10
2015,07,03,07,56,20.10
2015,07,03,07,57,20.20
2015,07,03,07,58,20.20
2015,07,03,07,59,20.30
2015,07,03,08,00,20.30
2015,07,03,08,01,20.30
2015,07,03,08,02,20.30
2015,07,03,08,03,20.40
2015,07,03,08,04,20.40
2015,07,03,08,05,20.40
2015,07,03,08,06,20.40
2015,07,03,08,07,20.40
2015,07,03,08,08,20.40
2015,07,03,08,09,20.40
2015,07,03,08,10,20.40
2015,07,03,08,11,20.40
2015,07,03,08,12,20.40
2015,07,03,08,13,20.40
2015,07,03,08,14,20.40
2015,07,03,08,15,20.40
2015,07,03,08,16,20.40
2015,07,03,08,17,20.40
2015,07,03,08,18,20.40
2015,07,03,08,19,20.50
2015,07,03,08,20,20.50
2015,07,03,08,21,20.60
2015,07,03,08,22,20.60
2015,07,03,08,23,20.70
2015,07,03,08,24,20.80
2015,07,03,08,25,20.80
2015,07,03,08,26,20.90
2015,07,03,08,27,20.90
2015,07,03,08,28,20.90
2015,07,03,08,29,21.00
2015,07,03,08,30,21.00
2015,07,03,08,31,21.00
2015,07,03,08,32,21.00
2015,07,03,08,33,21.00
2015,07,03,08,34,21.00
2015,07,03,08,35,21.00
2015,07,03,08,36,21.10
2015,07,03,08,37,21.10
2015,07,03,08,38,21.10
2015,07,03,08,39,21.10
2015,07,03,08,40,21.10
2015,07,03,08,41,21.10
2015,07,03,08,42,21.20
2015,07,03,08,43,21.20
2015,07,03,08,44,21.20
2015,07,03,08,45,21.20
2015,07,03,08,46,21.30
2015,07,03,08,47,21.30
2015,07,03,08,48,21.30
2015,07,03,08,49,21.30
2015,07,03,08,50,21.30
2015,07,03,08,51,21.30
2015,07,03,08,52,21.40
2015,07,03,08,53,21.40
2015,07,03,08,54,21.50
2015,07,03,08,55,21.60
2015,07,03,08,56,21.60
2015,07,03,08,57,21.70
2015,07,03,08,58,21.80
2015,07,03,08,59,21.90
2015,07,03,09,00,21.90
2015,07,03,09,01,21.90
2015,07,03,09,02,22.00
2015,07,03,09,03,22.00
2015,07,03,09,04,22.00
2015,07,03,09,05,22.00
2015,07,03,09,06,22.00
2015,07,03,09,07,22.00
2015,07,03,09,08,22.00
2015,07,03,09,09,22.00
2015,07,03,09,10,22.10
2015,07,03,09,11,22.10
2015,07,03,09,12,22.10
2015,07,03,09,13,22.10
2015,07,03,09,14,22.10
2015,07,03,09,15,22.10
2015,07,03,09,16,22.20
2015,07,03,09,17,22.20
2015,07,03,09,18,22.20
2015,07,03,09,19,22.20
2015,07,03,09,20,22.30
2015,07,03,09,21,22.30
2015,07,03,09,22,22.30
2015,07,03,09,23,22.30
2015,07,03,09,24,22.30
2015,07,03,09,25,22.30
2015,07,03,09,26,22.40
2015,07,03,09,27,22.40
2015,07,03,09,28,22.50
2015,07,03,09,29,22.50
2015,07,03,09,30,22.50
2015,07,03,09,31,22.50
2015,07,03,09,32,22.60
2015,07,03,09,33,22.60
2015,07,03,09,34,22.60
2015,07,03,09,35,22.50
2015,07,03,09,36,22.50
2015,07,03,09,37,22.40
2015,07,03,09,38,22.40
2015,07,03,09,39,22.40
2015,07,03,09,40,22.40
2015,07,03,09,41,22.40
2015,07,03,09,42,22.30
2015,07,03,09,43,22.30
2015,07,03,09,44,22.30
2015,07,03,09,45,22.20
2015,07,03,09,46,22.20
2015,07,03,09,47,22.20
2015,07,03,09,48,22.10
2015,07,03,09,49,22.10
2015,07,03,09,50,22.10
2015,07,03,09,51,22.10
2015,07,03,09,52,22.10
2015,07,03,09,53,22.20
2015,07,03,09,54,22.20
2015,07,03,09,55,22.20
2015,07,03,09,56,22.30
2015,07,03,09,57,22.30
2015,07,03,09,58,22.30
2015,07,03,09,59,22.30
2015,07,03,10,00,22.40
2015,07,03,10,01,22.40
2015,07,03,10,02,22.50
2015,07,03,10,03,22.50
2015,07,03,10,04,22.50
2015,07,03,10,05,22.50
2015,07,03,10,06,22.60
2015,07,03,10,07,22.60
2015,07,03,10,08,22.70
2015,07,03,10,09,22.70
2015,07,03,10,10,22.70
2015,07,03,10,11,22.70
2015,07,03,10,12,22.70
2015,07,03,10,13,22.70
2015,07,03,10,14,22.70
2015,07,03,10,15,22.70
2015,07,03,10,16,22.70
2015,07,03,10,17,22.70
2015,07,03,10,18,22.70
2015,07,03,10,19,22.70
2015,07,03,10,20,22.70
2015,07,03,10,21,22.80
2015,07,03,10,22,22.80
2015,07,03,10,23,22.80
2015,07,03,10,24,22.80
2015,07,03,10,25,22.90
2015,07,03,10,26,22.90
2015,07,03,10,27,23.00
2015,07,03,10,28,23.00
2015,07,03,10,29,23.10
2015,07,03,10,30,23.10
2015,07,03,10,31,23.20
2015,07,03,10,32,23.20
2015,07,03,10,33,23.30
2015,07,03,10,34,23.30
2015,07,03,10,35,23.30
2015,07,03,10,36,23.30
2015,07,03,10,37,23.30
2015,07,03,10,38,23.30
2015,07,03,10,39,23.30
2015,07,03,10,40,23.20
2015,07,03,10,41,23.20
2015,07,03,10,42,23.20
2015,07,03,10,43,23.20
2015,07,03,10,44,23.20
2015,07,03,10,45,23.10
2015,07,03,10,46,23.10
2015,07,03,10,47,23.10
2015,07,03,10,48,23.10
2015,07,03,10,49,23.20
2015,07,03,10,50,23.20
2015,07,03,10,51,23.20
2015,07,03,10,52,23.20
2015,07,03,10,53,23.20
2015,07,03,10,54,23.30
2015,07,03,10,55,23.30
2015,07,03,10,56,23.40
2015,07,03,10,57,23.40
2015,07,03,10,58,23.30
2015,07,03,10,59,23.30
2015,07,03,11,00,23.30
2015,07,03,11,01,23.20
2015,07,03,11,02,23.20
2015,07,03,11,03,23.20
2015,07,03,11,04,23.10
2015,07,03,11,05,23.10
2015,07,03,11,06,23.10
2015,07,03,11,07,23.10
2015,07,03,11,08,23.10
2015,07,03,11,09,23.10
2015,07,03,11,10,23.10
2015,07,03,11,11,23.10
2015,07,03,11,12,23.00
2015,07,03,11,13,23.00
2015,07,03,11,14,23.00
2015,07,03,11,15,22.90
2015,07,03,11,16,22.90
2015,07,03,11,17,22.80
2015,07,03,11,18,22.80
2015,07,03,11,19,22.90
2015,07,03,11,20,22.90
2015,07,03,11,21,22.90
2015,07,03,11,22,22.90
2015,07,03,11,23,22.90
2015,07,03,11,24,22.90
2015,07,03,11,25,22.90
2015,07,03,11,26,23.00
2015,07,03,11,27,23.00
2015,07,03,11,28,23.00
2015,07,03,11,29,23.10
2015,07,03,11,30,23.10
2015,07,03,11,31,23.10
2015,07,03,11,32,23.10
2015,07,03,11,33,23.20
2015,07,03,11,34,23.20
2015,07,03,11,35,23.20
2015,07,03,11,36,23.30
2015,07,03,11,37,23.30
2015,07,03,11,38,23.30
2015,07,03,11,39,23.40
2015,07,03,11,40,23.50
2015,07,03,11,41,23.50
2015,07,03,11,42,23.60
2015,07,03,11,43,23.60
2015,07,03,11,44,23.60
2015,07,03,11,45,23.60
2015,07,03,11,46,23.70
2015,07,03,11,47,23.70
2015,07,03,11,48,23.70
2015,07,03,11,49,23.70
2015,07,03,11,50,23.70
2015,07,03,11,51,23.70
2015,07,03,11,52,23.60
2015,07,03,11,53,23.60
2015,07,03,11,54,23.60
2015,07,03,11,55,23.60
2015,07,03,11,56,23.60
2015,07,03,11,57,23.60
2015,07,03,11,58,23.60
2015,07,03,11,59,23.60
2015,07,03,12,00,23.60
2015,07,03,12,01,23.60
2015,07,03,12,02,23.60
2015,07,03,12,03,23.60
2015,07,03,12,04,23.60
2015,07,03,12,05,23.60
2015,07,03,12,06,23.70
2015,07,03,12,07,23.70
2015,07,03,12,08,23.80
2015,07,03,12,09,23.80
2015,07,03,12,10,23.80
2015,07,03,12,11,23.90
2015,07,03,12,12,24.00
2015,07,03,12,13,24.10
2015,07,03,12,14,24.10
2015,07,03,12,15,24.20
2015,07,03,12,16,24.20
2015,07,03,12,17,24.20
2015,07,03,12,18,24.30
2015,07,03,12,19,24.30
2015,07,03,12,20,24.40
2015,07,03,12,21,24.40
2015,07,03,12,22,24.50
2015,07,03,12,23,24.50
2015,07,03,12,24,24.50
2015,07,03,12,25,24.50
2015,07,03,12,26,24.60
2015,07,03,12,27,24.70
2015,07,03,12,28,24.80
2015,07,03,12,29,24.80
2015,07,03,12,30,24.90
2015,07,03,12,31,24.90
2015,07,03,12,32,24.90
2015,07,03,12,33,24.90
2015,07,03,12,34,24.90
2015,07,03,12,35,24.90
2015,07,03,12,36,24.90
2015,07,03,12,37,24.90
2015,07,03,12,38,24.90
2015,07,03,12,39,24.90
2015,07,03,12,40,24.90
2015,07,03,12,41,25.00
2015,07,03,12,42,25.10
2015,07,03,12,43,25.20
2015,07,03,12,44,25.20
2015,07,03,12,45,25.30
2015,07,03,12,46,25.30
2015,07,03,12,47,25.40
2015,07,03,12,48,25.40
2015,07,03,12,49,25.40
2015,07,03,12,50,25.40
2015,07,03,12,51,25.40
2015,07,03,12,52,25.40
2015,07,03,12,53,25.30
2015,07,03,12,54,25.30
2015,07,03,12,55,25.30
2015,07,03,12,56,25.20
2015,07,03,12,57,25.20
2015,07,03,12,58,25.20
2015,07,03,12,59,25.30
2015,07,03,13,00,25.30
2015,07,03,13,01,25.30
2015,07,03,13,02,25.40
2015,07,03,13,03,25.40
2015,07,03,13,04,25.40
2015,07,03,13,05,25.30
2015,07,03,13,06,25.20
2015,07,03,13,07,25.10
2015,07,03,13,08,25.00
2015,07,03,13,09,25.00
2015,07,03,13,10,25.00
2015,07,03,13,11,24.90
2015,07,03,13,12,24.90
2015,07,03,13,13,25.00
2015,07,03,13,14,25.00
2015,07,03,13,15,25.00
2015,07,03,13,16,25.00
2015,07,03,13,17,25.00
2015,07,03,13,18,25.00
2015,07,03,13,19,25.00
2015,07,03,13,20,25.10
2015,07,03,13,21,25.10
2015,07,03,13,22,25.10
2015,07,03,13,23,25.10
2015,07,03,13,24,25.20
2015,07,03,13,25,25.20
2015,07,03,13,26,25.30
2015,07,03,13,27,25.40
2015,07,03,13,28,25.40
2015,07,03,13,29,25.50
2015,07,03,13,30,25.50
2015,07,03,13,31,25.60
2015,07,03,13,32,25.70
2015,07,03,13,33,25.80
2015,07,03,13,34,25.90
2015,07,03,13,35,26.00
2015,07,03,13,36,26.10
2015,07,03,13,37,26.30
2015,07,03,13,38,26.40
2015,07,03,13,39,26.50
2015,07,03,13,40,26.60
2015,07,03,13,41,26.70
2015,07,03,13,42,26.70
2015,07,03,13,43,26.70
2015,07,03,13,44,26.70
2015,07,03,13,45,26.60
2015,07,03,13,46,26.60
2015,07,03,13,47,26.60
2015,07,03,13,48,26.70
2015,07,03,13,49,26.80
2015,07,03,13,50,26.80
2015,07,03,13,51,26.80
2015,07,03,13,52,26.80
2015,07,03,13,53,26.90
2015,07,03,13,54,26.90
2015,07,03,13,55,26.80
2015,07,03,13,56,26.80
2015,07,03,13,57,26.80
2015,07,03,13,58,26.90
2015,07,03,13,59,26.90
2015,07,03,14,00,26.90
2015,07,03,14,01,26.90
2015,07,03,14,02,26.90
2015,07,03,14,03,26.90
2015,07,03,14,04,26.90
2015,07,03,14,05,26.80
2015,07,03,14,06,26.80
2015,07,03,14,07,26.80
2015,07,03,14,08,26.80
2015,07,03,14,09,26.90
2015,07,03,14,10,26.90
2015,07,03,14,11,26.90
2015,07,03,14,12,26.90
2015,07,03,14,13,27.00
2015,07,03,14,14,27.00
2015,07,03,14,15,27.00
2015,07,03,14,16,27.10
2015,07,03,14,17,27.10
2015,07,03,14,18,27.20
2015,07,03,14,19,27.20
2015,07,03,14,20,27.30
2015,07,03,14,21,27.40
2015,07,03,14,22,27.50
2015,07,03,14,23,27.50
2015,07,03,14,24,27.60
2015,07,03,14,25,27.60
2015,07,03,14,26,27.70
2015,07,03,14,27,27.70
2015,07,03,14,28,27.80
2015,07,03,14,29,27.80
2015,07,03,14,30,27.90
2015,07,03,14,31,27.90
2015,07,03,14,32,27.90
2015,07,03,14,33,27.80
2015,07,03,14,34,27.70
2015,07,03,14,35,27.60
2015,07,03,14,36,27.50
2015,07,03,14,37,27.40
2015,07,03,14,38,27.40
2015,07,03,14,39,27.50
2015,07,03,14,40,27.50
2015,07,03,14,41,27.50
2015,07,03,14,42,27.50
2015,07,03,14,43,27.40
2015,07,03,14,44,27.40
2015,07,03,14,45,27.30
2015,07,03,14,46,27.30
2015,07,03,14,47,27.20
2015,07,03,14,48,27.20
2015,07,03,14,49,27.30
2015,07,03,14,50,27.20
2015,07,03,14,51,27.20
2015,07,03,14,52,27.20
2015,07,03,14,53,27.20
2015,07,03,14,54,27.20
2015,07,03,14,55,27.10
2015,07,03,14,56,27.10
2015,07,03,14,57,27.10
2015,07,03,14,58,27.20
2015,07,03,14,59,27.20
2015,07,03,15,00,27.30
2015,07,03,15,01,27.30
2015,07,03,15,02,27.40
2015,07,03,15,03,27.40
2015,07,03,15,04,27.50
2015,07,03,15,05,27.50
2015,07,03,15,06,27.60
2015,07,03,15,07,27.60
2015,07,03,15,08,27.70
2015,07,03,15,09,27.70
2015,07,03,15,10,27.80
2015,07,03,15,11,27.80
2015,07,03,15,12,27.90
2015,07,03,15,13,28.00
2015,07,03,15,14,28.10
2015,07,03,15,15,28.10
2015,07,03,15,16,28.10
2015,07,03,15,17,28.10
2015,07,03,15,18,28.20
2015,07,03,15,19,28.20
2015,07,03,15,20,28.20
2015,07,03,15,21,28.30
2015,07,03,15,22,28.30
2015,07,03,15,23,28.40
2015,07,03,15,24,28.50
2015,07,03,15,25,28.60
2015,07,03,15,26,28.60
2015,07,03,15,27,28.60
2015,07,03,15,28,28.50
2015,07,03,15,29,28.40
2015,07,03,15,30,28.30
2015,07,03,15,31,28.30
2015,07,03,15,32,28.30
2015,07,03,15,33,28.30
2015,07,03,15,34,28.30
2015,07,03,15,35,28.30
2015,07,03,15,36,28.20
2015,07,03,15,37,28.20
2015,07,03,15,38,28.30
2015,07,03,15,39,28.30
2015,07,03,15,40,28.30
2015,07,03,15,41,28.30
2015,07,03,15,42,28.30
2015,07,03,15,43,28.30
2015,07,03,15,44,28.20
2015,07,03,15,45,28.20
2015,07,03,15,46,28.10
2015,07,03,15,47,28.10
2015,07,03,15,48,28.10
2015,07,03,15,49,28.10
2015,07,03,15,50,28.10
2015,07,03,15,51,28.20
2015,07,03,15,52,28.20
2015,07,03,15,53,28.30
2015,07,03,15,54,28.30
2015,07,03,15,55,28.30
2015,07,03,15,56,28.30
2015,07,03,15,57,28.20
2015,07,03,15,58,28.20
2015,07,03,15,59,28.10
2015,07,03,16,00,28.10
2015,07,03,16,01,28.10
2015,07,03,16,02,28.10
2015,07,03,16,03,28.10
2015,07,03,16,04,28.10
2015,07,03,16,05,28.20
2015,07,03,16,06,28.20
2015,07,03,16,07,28.20
2015,07,03,16,08,28.20
2015,07,03,16,09,28.20
2015,07,03,16,10,28.20
2015,07,03,16,11,28.10
2015,07,03,16,12,28.10
2015,07,03,16,13,28.10
2015,07,03,16,14,28.00
2015,07,03,16,15,28.00
2015,07,03,16,16,27.90
2015,07,03,16,17,27.90
2015,07,03,16,18,27.90
2015,07,03,16,19,27.90
2015,07,03,16,20,27.80
2015,07,03,16,21,27.70
2015,07,03,16,22,27.70
2015,07,03,16,23,27.70
2015,07,03,16,24,27.60
2015,07,03,16,25,27.40
2015,07,03,16,26,27.30
2015,07,03,16,27,27.10
2015,07,03,16,28,27.00
2015,07,03,16,29,26.80
2015,07,03,16,30,26.70
2015,07,03,16,31,26.60
2015,07,03,16,32,26.50
2015,07,03,16,33,26.50
2015,07,03,16,34,26.50
2015,07,03,16,35,26.60
2015,07,03,16,36,26.50
2015,07,03,16,37,26.50
2015,07,03,16,38,26.50
2015,07,03,16,39,26.40
2015,07,03,16,40,26.40
2015,07,03,16,41,26.30
2015,07,03,16,42,26.30
2015,07,03,16,43,26.30
2015,07,03,16,44,26.40
2015,07,03,16,45,26.40
2015,07,03,16,46,26.40
2015,07,03,16,47,26.40
2015,07,03,16,48,26.30
2015,07,03,16,49,26.30
2015,07,03,16,50,26.30
2015,07,03,16,51,26.40
2015,07,03,16,52,26.50
2015,07,03,16,53,26.50
2015,07,03,16,54,26.60
2015,07,03,16,55,26.60
2015,07,03,16,56,26.60
2015,07,03,16,57,26.60
2015,07,03,16,58,26.60
2015,07,03,16,59,26.60
2015,07,03,17,00,26.60
2015,07,03,17,01,26.60
2015,07,03,17,02,26.60
2015,07,03,17,03,26.60
2015,07,03,17,04,26.60
2015,07,03,17,05,26.60
2015,07,03,17,06,26.70
2015,07,03,17,07,26.70
2015,07,03,17,08,26.70
2015,07,03,17,09,26.70
2015,07,03,17,10,26.70
2015,07,03,17,11,26.70
2015,07,03,17,12,26.60
2015,07,03,17,13,26.60
2015,07,03,17,14,26.50
2015,07,03,17,15,26.50
2015,07,03,17,16,26.50
2015,07,03,17,17,26.40
2015,07,03,17,18,26.40
2015,07,03,17,19,26.40